CZ-3C DEB, 39353

Orbit data source: Space-Track

CZ-3C DEB, 39353 is space debris in HEO originally from a launch on Sun, 31 Oct 2010 UTC launched from the Xichang Space Center, China (XSC). Debris objects in space refer to the collection of defunct objects orbiting the Earth. Examples of debris include non-operational satellites, rocket bodies, and fragments generated from explosions, collisions, or faulty payload assembly.

Loading next visibility...
Identifier
39353, 2010-057T
Orbit
HEO
Country
Flag of CNCN / PRC
Related business
Manufacturer
CALT
Mission
Spacecraft
Bus & Motor
Unknown
Mass
Unknown
Launch date (UTC)
2010-10-31 (15 years ago)
Launch vehicle
Unknown
Launch site
Xichang Space Center, China (XSC)
Object type
Payload
Rocket body
Debris
Shape & HBR
Unknown shape, 0.3 m
Radar Cross Section
Medium (>0.1 m² and <1 m²)

Expand to show TLE details & history
Last TLE update: 1 day ago

TLE from 1 day ago
0 CZ-3C DEB
1 39353U 10057T   25301.29843810  .00000195  00000-0  51935-2 0  9992
2 39353  19.6306 161.2594 7157978  55.8331  30.4584  2.24401034 98581
Epoch: 2025-10-28T07:09Z
TLE epoch observation values (Epoch: 2025-10-28T07:09:45.051Z)
Latitude
1.92972°
Longitude
-168.37531°
Altitude
11,832.579 km
Speed
5.254 km/s
True Right ascension
22h 23m 48s
True Declination
1° 55' 31"
Sunlit
Object was in daylight at epoch
Visualization orbit readout
Latitude
Unknown
Longitude
Unknown
Altitude
Unknown
Speed
Unknown
Apparent Right ascension
Unknown
Apparent Declination
Unknown
Sunlit
N/A
Visualization observer readout
Local Sidereal Time
02:31:08
Azimuth
Unknown
Elevation
Unknown
Doppler factor
Unknown
Orbital elements
Apogee altitude
35,914.212 km
Perigee altitude
627.105 km
Semi-major axis
24,648.796 km
Eccentricity
0.7158
Inclination
19.6306°
RAAN
161.2594°
Arg. of periapsis
55.8331°
True anomaly
118.41265°
Mean anomaly
30.4584°
Eccentric anomaly
68.65823°
Mean motion
0.56085 °/min
Orbital period
641.88 mins
BSTAR
0.0051935
Loading maneuver chart data...
Computing Atmospheric mass density...
Loading historical data...
Loading historical data...
Loading historical data...
Loading historical data...
Loading historical data...
Loading historical data...
Loading historical data...

Documentation

Showing up to 5 results
|